CAPE
84 504 2546 2072 2380 2325 2216 2295 2341 2272 2268 2381 2772 2882 2910 2764 2945 3127 3122 3080 3318 3123 3269 3226 3178 2338 2526 2485 2012 2457 2672 2797 3319 2660 2289 2089 2113 3005 3296 3447 3315 2194 2690
28 333 2805 2378 2437 2403 2406 2385 2493 2379 2261 2283 2481 2689 2721 2538 2494 2545 2692 2622 2843 2795 2753 2393 2446 2594 3002 2899 2523 2204 3068 2905 3365 2566 2329 2109 2963 2724 3059 3245 2993 2582 2952
0 589 1712 2609 2533 2630 2526 2443 2436 2247 2122 2074 2030 2059 2123 1945 1909 1764 1863 1911 1847 2069 2720 2281 2238 2282 2515 2385 2836 2338 2532 3633 3887 2972 3020 1513 2813 2771 3330 2038 2103 2054 1989
39 134 1015 2807 2513 2741 2709 2680 2520 1917 1952 2006 1930 1977 2034 1807 1761 1683 1667 1691 1622 1764 1685 2571 2393 2141 1964 2175 2345 2238 2199 2225 2786 2972 2481 1077 1964 3003 3156 3148 3061 2938 2784
234 312 1212 2989 2737 2735 2921 2814 2951 2520 2267 2167 2099 1940 1810 1748 1654 1566 1530 1512 1483 1485 1626 1754 2307 2326 2035 1868 1924 1985 1969 1922 1931 2097 2210 648 853 2039 2027 1924 2019 2027 2685
712 1339 2230 2963 3165 2875 2844 3049 2692 2718 2137 2126 1989 1878 1732 1539 1385 1453 1619 1775 1997 1779 1554 1734 2064 2345 2530 2024 1894 1984 2155 2071 2116 2457 1371 1752 646 1900 2033 2911 3140 2837 2021
1387 1354 1721 3102 2986 2942 2911 2707 2621 2326 1877 1826 1760 1628 1549 1686 1891 1790 1280 1651 1621 1743 1694 1607 1719 1954 2076 2014 2087 2303 2483 2288 2369 2493 1132 1322 1969 3197 3121 3169 2990 2506 2047
960 885 1538 2411 2815 2759 2620 2468 2378 1724 1630 1678 1564 1677 1597 1548 1616 1136 1339 1214 1581 1700 1537 1568 1713 1644 1988 1996 2407 2631 2658 1945 1990 2125 940 1532 3000 3731 2871 2954 2723 2980 2515
729 1151 1172 1266 1869 2196 2248 1889 1709 1517 1414 1519 1442 1408 1305 1314 1289 1347 1094 1355 1401 1401 1429 1629 1533 1644 1700 2001 2036 2357 2254 2288 1737 1856 1835 1930 3697 3623 3167 2926 2601 2856 2876
1068 853 1053 982 1342 1493 1661 1365 1388 1295 1572 1557 1499 1526 1679 1319 1414 1279 1135 1543 1656 1471 1233 1474 1547 1388 1456 1614 1839 2071 1959 2056 1751 1826 1911 2080 3513 3607 2988 2944 2991 2939 2739
961 583 1010 673 1436 2053 1488 1232 1690 1230 727 288 225 111 822 959 66 4 313 1145 1420 1559 1415 1061 1510 1425 1495 1489 1693 1954 1647 1635 1409 1194 1243 2178 2811 2921 2465 2183 2692 2945 2657
563 587 813 676 1017 1231 1251 1408 1059 82 4 15 35 36 18 168 52 11 132 1047 1367 1313 1201 1375 1741 1291 1185 973 1138 1530 1386 1260 1035 1276 739 2269 2830 2715 2375 2357 2712 2987 2801
472 570 527 1089 1763 1183 1102 190 154 39 0 1 0 0 5 225 4 23 8 1082 1098 934 864 1120 1448 1290 860 702 25 788 531 488 840 977 1130 2635 2713 2579 2109 2035 2526 2837 2843
634 796 800 1162 1404 1074 1227 115 37 3 0 0 0 4 125 439 1068 229 435 586 448 1406 717 1829 834 723 201 560 436 645 453 782 777 1050 1061 2524 2574 2437 1891 1839 1905 2399 2677
563 671 493 1263 1458 1690 1499 9 1 10 0 0 0 8 89 482 1255 524 1441 1225 1181 422 815 1483 1052 1173 572 771 676 494 865 343 506 976 1090 2796 2621 2559 2219 1699 2051 2312 2239
914 620 645 1218 2018 1839 813 326 23 216 574 73 103 961 1018 1008 1308 1910 692 1253 1429 198 829 1711 1484 1607 1528 913 928 959 1025 1236 916 873 1478 2022 2830 2702 2677 2808 2910 2997 2582
1024 1052 1318 1029 1418 2218 1744 1631 980 440 491 1246 751 1245 653 1560 835 1529 1604 388 1508 1815 1561 1206 1488 1672 518 1252 1469 718 956 887 872 1597 1826 1815 2525 3273 3263 3378 3432 3559 3465
1137 1364 1570 1189 1588 1855 1943 1761 1215 1026 1453 1286 1895 1003 1052 1253 1456 2365 1405 830 1032 1583 1645 1413 918 1506 1058 1329 1557 1675 1335 1242 1119 2005 1660 1324 1608 1593 2906 3118 3138 3158 3568
1665 1521 1523 1506 1553 1750 2496 1855 994 511 1012 1333 1387 1242 1967 1708 1539 2600 520 693 1307 2074 1920 1335 1301 1861 1639 811 712 1125 949 1344 957 916 1329 1677 1083 1334 1616 2611 2704 3207 3204
1645 2012 2363 1860 1639 1536 2214 2290 1385 1217 1176 1390 1581 1529 1373 1362 1650 2210 539 639 1837 1291 1596 1380 1684 1986 1863 2173 1567 934 827 1294 708 1742 1525 1531 1222 1825 2266 2178 2457 2831 3413
1792 2134 2484 2865 3204 2813 2530 2434 1846 1911 1749 1865 1629 1446 1338 2016 2244 2433 2044 1243 1624 2431 2309 1810 1912 1935 1544 1709 1673 990 249 0 50 310 1501 1941 1581 1145 1506 2257 1933 2146 2593
2075 2423 3006 3198 3558 3244 2793 2474 2461 2235 869 818 1539 1655 2286 2558 2192 1939 2290 1467 2016 2246 1921 1972 2057 2878 1199 390 562 1328 62 0 12 109 509 1539 1807 1390 1693 2136 2511 2519 1864
2223 2589 3330 3714 3925 3462 3548 3056 2840 2741 718 1974 1178 1962 2253 1996 1898 1787 2238 2267 2176 2404 2243 1760 2048 2067 1369 440 100 1212 568 139 0 0 40 1072 1502 1659 1609 1672 1934 2288 2612
2452 2555 3440 3791 4198 3726 3962 3425 3262 2557 1885 2637 1906 1801 2517 1085 1270 2290 1200 1154 2449 2339 2462 2271 2005 1900 2117 1107 1097 739 1308 551 404 682 500 228 981 1435 1306 1893 2035 2258 2634
2132 2566 3270 3986 4280 4491 4015 4115 3415 3262 2527 2675 2172 2318 2370 2500 2387 2187 1854 1518 2560 2463 2238 2264 1918 1749 1520 1288 952 720 138 12 435 580 236 0 0 1577 1604 1631 1457 1640 1795
2240 2549 2900 4308 4723 4516 4602 4221 4041 2855 2721 2645 1203 1629 2556 2458 2352 2574 2008 2094 2047 2294 2839 2635 2949 2793 2111 996 345 84 0 158 391 15 81 2 1 39 999 1409 1317 1427 1644
CIN
-60 -33 0 0 0 0 0 0 0 0 0 0 0 0 0 0 0 0 0 0 0 0 0 0 0 0 0 0 -13 -4 -4 -7 0 0 -3 -3 -1 0 0 -2 0 -1 0
-122 -56 0 0 0 0 0 0 0 0 0 0 0 0 0 0 0 0 0 0 0 0 0 0 0 0 0 0 0 -4 0 0 0 -6 -3 -2 0 -1 -1 -3 0 0 0
0 -48 0 0 0 0 0 0 0 0 0 0 0 0 0 0 0 0 -1 -6 -11 -4 0 -1 0 0 0 0 0 0 -5 0 0 -5 -3 -26 0 0 0 -22 -10 -8 -11
-105 -86 -19 0 0 0 0 0 0 0 0 0 0 0 0 0 -1 -2 -2 -5 -7 -1 -10 0 0 -2 -7 -3 -1 -9 -25 -20 -4 -6 -9 -42 -5 0 0 0 0 0 0
-31 -17 -14 0 0 0 0 0 0 0 0 0 0 0 0 0 -3 -8 -5 -4 -5 -5 0 0 0 0 -3 -9 -12 -26 -39 -45 -50 -46 -24 -99 -74 -19 -21 -17 -14 -10 0
-1 -7 0 0 0 0 0 0 0 0 0 0 0 0 0 -2 -9 -11 -3 0 0 0 0 0 0 0 0 -1 -11 -24 -33 -45 -55 -35 -29 -23 -110 -39 -20 0 0 -1 -17
-7 -36 -1 0 0 0 0 0 0 0 0 0 0 0 -3 0 0 -1 -7 -2 -3 0 0 0 -1 -1 -2 -5 -4 -9 -19 -34 -37 -43 -18 -61 -69 -4 0 0 0 -2 -16
-14 -33 -5 0 0 0 0 0 0 0 0 -1 -1 0 -1 -2 0 -8 -7 -8 -4 0 0 -1 0 0 -1 -2 0 0 -9 -46 -22 -22 -37 -54 -38 0 0 0 0 0 0
-33 -39 -24 -2 0 0 0 0 0 -1 -2 -2 -2 -2 -2 0 0 0 -7 -3 0 0 0 -2 0 0 0 0 0 -1 -6 -28 -56 -32 -16 -65 -10 -5 0 0 0 0 0
-20 -34 -14 -2 0 -2 0 -1 -1 -5 0 0 0 0 0 -4 -3 -4 -8 -3 0 0 0 0 0 0 0 0 0 0 -12 -30 -45 -33 -19 -57 -22 0 -1 0 0 0 0
-8 -29 0 -6 -1 -2 -18 -24 -1 -10 -45 -52 -59 -75 -9 -21 -191 -224 -64 -3 -1 0 0 0 0 0 0 -5 -8 -7 -22 -54 -34 -84 -35 -26 -29 -29 -17 -9 0 0 0
-16 -8 -16 -29 -6 -27 -33 -39 -45 -146 -92 -146 -119 -156 -125 -93 -148 -325 -116 -7 -5 -4 -5 0 0 -4 -2 -7 -20 -19 -26 -73 -144 -96 -183 -38 -30 -45 -29 -11 0 0 0
-38 -20 -32 -43 -32 -44 -39 -126 -116 -174 0 -68 0 -3 -21 -27 -24 -119 -49 -21 -37 -8 -6 -8 -2 -4 -4 -79 -20 -91 -137 -278 -113 -47 -49 -49 -39 -53 -53 -36 -6 0 0
-30 -18 -3 -49 -25 -48 -18 -106 -129 -197 0 0 0 -283 -104 -43 -8 -4 -3 -79 -93 -24 -50 -20 -43 -56 -133 -76 -136 -81 -140 -79 -93 -171 -158 -39 -44 -56 -69 -59 -46 -17 -1
-14 -20 -8 -10 -76 -21 -2 -136 -84 -137 0 0 0 -213 -123 -38 -26 -39 -24 -59 -42 -65 -47 -25 -48 -22 -86 -50 -52 -147 -33 -200 -125 -99 -108 -41 -59 -74 -62 -77 -52 -31 -22
-22 -71 -4 -18 -30 -8 -52 -138 -233 -104 -21 -153 -102 -15 -16 -23 -29 -8 -57 -48 -13 -122 -86 -26 -29 -23 -34 -23 -20 -12 -13 -20 -90 -89 -42 -67 -81 -107 -91 -60 -35 -13 -10
-29 -35 -32 -24 -20 -1 -13 -11 -38 -70 -65 -18 -43 -18 -81 -22 -45 -23 -18 -95 -28 -25 -25 -36 -37 -14 -94 -28 -20 -47 -17 -14 -24 -18 -20 -28 -90 -82 -73 -50 -17 -1 0
-31 -69 -33 -28 -24 -13 -7 -14 -35 -27 -12 -38 -25 -40 -51 -48 -10 -4 -39 -60 -52 -12 -16 -24 -52 -20 -29 -30 -31 -21 -40 -21 -30 -13 -26 -45 -50 -65 -63 -39 -28 -8 0
-24 -37 -42 -45 -48 -48 -13 -24 -52 -65 -28 -40 -13 -24 -12 -6 -2 -14 -100 -81 -40 -11 -10 -40 -22 -31 -16 -35 -54 -88 -62 -59 -63 -16 -30 -41 -71 -135 -113 -74 -66 -24 -1
-25 -8 -17 -27 -60 -58 -38 -25 -44 -34 -33 -43 -23 -16 -33 -23 -8 -25 -97 -90 -21 -37 -31 -41 -25 -32 -22 -19 -14 -78 -144 -56 -40 -38 -22 -25 -65 -29 -37 -90 -88 -50 -3
-11 -2 -2 -2 -11 -5 -8 -5 -12 -18 -38 -31 -32 -38 -32 -7 -5 -8 -27 -40 -27 -7 -12 -10 -12 -16 -36 -28 -35 -41 -146 -1 -335 -207 -57 -39 -24 -10 -29 -71 -110 -87 -76
-1 -5 -5 -2 -7 -2 -1 -5 -7 -23 -124 -54 -34 -49 -13 -4 -4 -3 -7 -30 -16 -17 -14 -18 -14 -7 -34 -144 -79 -41 -62 0 -330 -291 -193 -32 -33 -41 -35 -27 -57 -40 -90
-9 -5 -4 -3 -4 -3 -5 -5 -17 -19 -156 -42 -90 -29 -4 -13 -9 -24 -17 -12 -17 -8 -16 -27 -20 -13 -23 -117 -234 -35 -30 -57 0 0 -241 -48 -32 -39 -13 -16 -41 -48 -44
-7 -8 -8 -4 -3 -2 -2 -4 -3 -13 -27 -22 -49 -49 -19 -100 -48 -13 -85 -83 -10 -8 -9 -19 -13 -18 -19 -37 -47 -111 -18 -44 -18 -24 -155 -242 -59 -14 -30 -41 -46 -35 -30
-3 -4 -5 -11 -3 -2 -1 -4 -2 -5 -8 -8 -21 -35 -39 -31 -15 -6 -26 -39 -8 -8 -9 -18 -15 -17 -29 -55 -76 -79 -226 -342 -135 -46 -118 0 0 -51 -34 -39 -20 -45 -27
-7 -8 -5 -10 -4 -3 -1 -2 -15 -17 -25 -8 -56 -34 -33 -22 -29 -10 -13 -19 -22 -4 -9 -8 -11 -11 -15 -67 -132 -255 0 -246 -112 -92 -60 -43 -83 -272 -43 -56 -50 -50 -60
Wind_Speed
16 16 15 16 17 16 16 16 15 14 13 13 14 15 15 15 13 13 13 13 13 12 13 12 11 12 12 13 13 14 15 15 16 17 16 15 13 10 11 16 18 15 15
21 18 16 16 18 16 15 15 14 13 12 13 12 13 14 13 12 12 12 12 12 13 13 12 11 10 11 11 13 12 12 13 14 17 17 16 15 17 15 18 17 13 15
21 19 17 16 18 16 15 14 13 13 12 12 12 12 12 12 11 11 11 11 10 10 10 11 11 10 11 10 12 11 9 10 13 17 20 10 9 15 15 18 15 14 14
21 18 18 16 17 16 15 14 14 13 12 12 11 10 10 9 9 8 9 9 8 7 7 7 9 10 10 10 10 9 7 7 8 10 4 12 11 12 14 14 13 13 13
19 18 18 17 17 16 15 14 14 13 12 11 10 9 8 7 7 6 6 5 6 6 5 6 6 9 9 9 8 7 5 5 7 7 7 9 8 10 12 12 12 10 12
21 20 17 16 16 15 15 14 12 13 11 11 10 8 7 5 4 3 3 3 4 5 4 5 6 7 9 9 8 7 6 7 6 8 8 9 10 12 11 11 13 12 11
23 19 17 16 16 15 14 13 13 12 11 9 8 7 5 3 2 2 1 2 2 4 6 6 5 4 6 9 10 9 8 7 7 7 4 12 12 13 10 11 11 10 9
21 20 16 16 16 14 14 13 12 11 9 8 7 6 4 2 1 1 3 3 3 5 5 6 6 6 7 8 10 9 9 9 9 4 7 12 16 15 12 11 10 10 8
12 18 15 15 14 15 14 13 12 10 8 7 7 5 4 3 4 3 5 6 5 5 5 6 6 6 7 8 9 10 9 11 8 5 7 9 16 17 13 11 10 9 8
18 17 13 14 13 10 10 13 12 11 10 11 9 8 7 5 7 10 6 7 9 8 6 6 6 7 7 8 10 10 10 11 7 7 7 6 17 16 14 11 10 9 7
11 15 14 13 13 10 7 8 11 12 12 11 8 8 5 3 7 10 15 10 10 8 9 8 7 8 8 9 8 9 8 4 5 4 5 19 15 17 14 11 10 9 8
15 10 11 12 11 11 6 7 4 3 4 5 3 3 5 7 7 10 16 17 12 9 9 9 8 9 7 4 4 7 4 3 1 4 2 13 15 18 14 11 10 10 10
17 12 9 11 12 12 8 4 2 2 2 2 3 2 6 2 9 7 10 6 5 9 5 7 7 6 6 4 5 4 5 1 1 3 8 16 16 18 16 12 11 10 11
17 15 15 15 11 11 7 4 3 2 2 2 2 5 5 5 5 7 13 7 2 3 4 4 3 3 3 6 9 13 7 6 2 4 6 14 15 15 15 13 12 12 11
16 16 12 13 11 10 8 5 3 4 4 4 4 5 6 6 3 2 2 5 4 4 4 5 7 6 9 9 14 13 8 9 8 7 5 18 18 17 16 15 15 14 13
13 8 10 13 11 11 6 8 5 4 5 5 5 6 8 6 5 3 2 2 2 5 6 5 3 4 3 6 6 6 6 6 9 14 10 11 20 20 20 19 17 16 15
14 15 12 12 12 10 8 7 5 5 5 5 6 6 6 6 6 5 2 3 4 5 7 4 6 3 5 6 3 5 5 6 6 6 6 9 11 17 18 18 16 16 16
14 15 14 12 13 12 10 8 6 6 5 6 5 6 9 9 5 4 1 2 4 5 4 4 5 5 4 2 3 3 4 5 7 5 5 6 5 7 10 13 15 15 16
16 12 17 14 14 12 12 9 9 10 6 5 5 4 5 6 5 5 3 3 5 5 4 4 2 2 1 2 3 5 8 5 5 7 8 5 7 8 9 16 17 16 18
15 12 12 12 13 14 10 8 8 7 6 4 6 6 6 7 8 8 4 5 6 4 4 0 3 2 2 3 3 7 13 6 4 6 6 8 9 8 9 10 9 9 18
16 13 11 10 12 9 8 6 5 5 6 5 6 7 5 6 5 6 6 6 6 3 4 3 5 3 2 4 3 1 3 11 11 10 5 4 5 5 7 10 8 8 10
14 12 11 8 10 7 6 6 3 2 8 7 8 6 7 5 4 5 6 7 6 4 5 5 3 2 1 4 2 3 3 4 13 10 11 6 7 8 6 12 12 8 9
15 13 13 10 10 9 8 5 5 5 5 5 4 4 5 2 7 7 5 7 5 5 4 4 4 6 3 2 5 2 2 3 7 6 13 8 6 3 5 6 7 7 8
16 14 14 12 11 10 8 6 5 3 4 5 7 7 4 11 13 10 9 8 7 4 5 5 6 4 4 4 3 4 3 4 9 3 4 5 4 6 6 4 6 6 6
14 14 14 13 11 9 10 8 4 7 7 3 4 7 8 10 13 12 11 11 7 5 5 6 3 4 4 3 3 3 2 3 5 8 4 6 6 3 5 5 6 8 9
14 14 13 13 11 10 10 9 7 4 5 1 6 7 7 7 8 9 10 8 7 6 5 5 6 7 6 5 3 3 3 2 4 5 3 7 0 8 9 5 5 7 7
Wind_Direction
136 138 137 135 127 123 125 122 121 114 108 102 100 97 94 93 92 92 89 91 90 87 81 90 93 90 99 98 95 97 95 97 99 104 104 98 89 89 123 121 110 103 102
132 140 138 136 127 125 124 126 123 120 115 111 104 98 96 96 95 91 91 89 90 95 95 92 91 101 111 114 110 112 110 123 123 116 105 98 83 75 79 86 88 96 97
135 132 141 136 133 129 128 130 128 125 122 118 111 106 101 98 96 96 96 92 92 95 99 111 113 112 115 115 114 121 127 132 139 140 135 113 94 94 94 98 109 110 106
132 147 138 136 136 132 131 132 133 130 125 120 118 113 106 104 101 99 97 100 103 103 107 111 126 126 128 130 130 130 153 159 161 175 206 131 110 106 102 107 109 107 102
138 141 128 135 137 135 133 134 134 131 127 126 124 117 112 108 107 105 106 120 129 131 134 139 139 139 142 141 141 145 184 204 208 225 241 121 122 122 120 123 120 123 107
135 115 132 135 137 138 137 133 125 124 126 124 123 120 116 113 115 116 146 167 158 158 175 173 172 166 158 153 154 166 198 234 253 247 135 125 114 132 132 115 107 108 107
111 125 132 136 138 138 137 134 131 131 129 128 128 121 118 106 79 66 308 219 196 183 174 182 192 172 175 173 168 180 211 250 270 283 141 111 126 137 131 124 123 119 122
126 129 129 128 132 136 138 133 133 131 129 121 104 94 85 54 36 236 244 242 221 207 187 177 183 182 179 181 187 190 215 246 277 284 180 131 144 144 145 137 139 140 134
97 122 134 137 137 137 134 133 130 130 123 113 98 90 56 342 302 274 255 222 214 226 208 175 180 187 190 186 195 202 232 263 279 259 125 138 151 143 147 150 153 153 152
131 134 154 134 152 144 141 136 131 120 92 71 53 42 16 303 310 327 270 237 213 207 208 196 184 194 195 193 197 208 220 256 273 282 56 123 149 146 149 159 162 164 169
137 146 151 160 151 135 127 146 136 128 100 79 51 22 315 45 45 12 313 265 229 208 208 201 192 202 201 208 207 205 216 236 265 320 132 199 158 147 156 168 169 176 185
151 140 139 140 140 126 141 137 157 205 142 123 76 348 298 84 69 30 299 245 226 213 216 210 199 211 214 213 198 220 228 221 236 331 103 176 165 151 163 176 182 186 196
145 153 179 110 131 143 158 148 141 77 10 78 124 288 272 216 156 155 256 222 225 210 214 201 197 221 206 128 275 289 243 100 335 76 218 184 182 157 169 180 191 201 208
144 160 154 139 150 164 172 163 152 129 215 198 229 253 257 243 220 202 202 188 196 244 195 237 225 174 109 195 170 234 233 30 82 235 221 203 185 172 176 188 198 205 214
151 158 151 150 148 161 177 139 190 180 203 214 205 231 247 268 300 231 205 153 209 41 253 229 203 197 220 192 195 203 200 170 181 215 218 195 193 175 184 192 197 205 214
138 116 173 146 156 165 170 155 189 202 180 204 214 211 213 235 263 165 199 262 197 188 242 243 229 217 240 233 205 166 193 214 199 179 203 196 195 180 184 190 196 202 207
165 159 152 169 171 169 155 168 195 192 214 205 216 234 226 236 215 161 158 247 271 201 225 207 237 193 228 251 249 201 194 201 244 197 190 187 200 196 187 194 197 200 200
134 163 169 169 168 177 171 186 193 232 193 210 200 222 232 237 213 143 170 259 277 291 240 261 239 232 224 233 279 279 188 222 206 200 209 248 180 181 210 203 199 205 203
157 158 159 176 176 166 168 182 191 214 212 207 221 220 218 209 206 151 180 260 257 266 270 270 237 221 339 276 281 0 319 220 178 220 210 206 271 154 204 201 199 204 204
155 178 151 164 169 166 178 183 204 199 209 193 200 219 217 225 186 148 189 231 247 235 251 159 241 313 298 317 66 107 277 316 233 238 223 195 223 221 161 169 192 201 203
167 160 163 185 159 173 175 203 190 173 197 224 230 234 180 228 178 171 184 222 231 247 244 227 211 190 341 343 7 218 24 344 344 326 240 256 229 218 175 163 178 199 200
159 157 162 181 158 177 197 211 200 144 98 278 238 212 219 173 221 213 217 215 196 225 241 241 286 98 91 54 58 306 45 308 331 297 305 224 237 189 222 170 191 189 171
156 165 166 177 170 183 231 212 184 196 140 183 268 251 186 348 234 235 267 240 195 196 219 249 227 227 168 151 152 175 155 148 271 282 250 238 218 220 219 197 178 182 162
154 168 164 173 174 187 208 246 217 188 216 205 196 206 184 178 223 192 202 247 239 213 205 214 228 220 146 194 182 216 258 167 219 338 27 348 259 201 219 226 171 190 186
158 163 164 169 181 193 189 232 211 217 225 211 260 200 196 185 198 202 194 209 226 210 235 222 244 155 172 178 199 168 262 263 19 331 336 327 342 289 217 194 187 189 198
156 160 164 164 177 189 180 196 245 272 279 176 227 240 204 206 195 200 200 196 200 229 241 236 226 180 190 202 186 178 182 148 90 169 249 264 180 309 285 192 225 187 181